Location: Unspecified
(17.6330°N, 0.0000°E)
Time: 18:25:03
(UTC+00:00)

Courier 1B Rocket - Pass Details

Date: 04 July 2019
Orbit: 920 x 1202 km, 28.3° (Epoch: 24 August)

Event Time Altitude Azimuth Distance (km) Brightness Sun altitude
Rises 04:44:31 0° 293° (WNW) 3,994 7.8 -10.5°
Reaches altitude 10° 04:47:24 10° 294° (WNW) 2,997 7.2 -9.9°
Maximum altitude 04:54:48 89° 25° (NNE) 1,069 5.3 -8.3°
Drops below altitude 10° 05:01:38 10° 114° (ESE) 2,782 8.0 -6.9°
Sets 05:04:13 0° 114° (ESE) 3,693 8.7 -6.3°
